Location: Ermatingen
(47.6706°N, 9.0857°E)
Time: 06:29:10
(UTC+00:00)

MOS 1 Rocket - Pass Details

Date: 18 September 2020
Orbit: 614 x 831 km, 97.4° (Epoch: 27 October)

Event Time Altitude Azimuth Distance (km) Brightness Sun altitude
Rises 18:56:57 0° 10° (N) 3,039 6.7 -15.3°
Reaches altitude 10° 18:59:16 10° 7° (N) 2,089 5.9 -15.7°
Maximum altitude 19:03:44 63° 287° (WNW) 714 3.6 -16.4°
Drops below altitude 10° 19:08:00 10° 206° (SSW) 1,989 5.7 -17.1°
Sets 19:10:09 0° 203° (SSW) 2,879 6.5 -17.4°
